Total_Precipitation_Accumulation
0.07 0.09 0.07 0.12 0.05 0.04 0.03 0.04 0.03 0.03 0.03 0.04 0.03 0.02 0.03 0.04 0.02 0.03 0.03 0.03 0.02 0.03 0.04 0.01 0.02 0.02 0.01 0.01 0.00 0.00 0.00 0.00 0.00 0.00 0.00 0.00 0.00 0.00 0.00 0.00 0.00 0.00 0.00 0.00 0.00 0.00 0.00 0.00 0.00 0.00 0.00 0.00 0.00 0.00 0.00 0.00 0.00 0.00 0.00 0.00 0.00 0.00 0.00 0.00 0.00 0.00 0.00 0.00 0.00 0.00 0.00 0.00 0.00 0.00 0.00 0.00 0.00 0.00 0.01 0.00 0.01 0.01 0.12 0.09 0.08 0.16 0.08 0.09
0.06 0.06 0.11 0.05 0.05 0.05 0.05 0.03 0.03 0.03 0.02 0.01 0.03 0.02 0.03 0.02 0.02 0.01 0.03 0.02 0.03 0.02 0.01 0.03 0.01 0.01 0.01 0.00 0.00 0.00 0.00 0.00 0.00 0.00 0.00 0.00 0.00 0.00 0.00 0.00 0.00 0.00 0.00 0.00 0.00 0.00 0.00 0.00 0.00 0.00 0.00 0.00 0.00 0.00 0.00 0.00 0.00 0.00 0.00 0.00 0.00 0.00 0.00 0.00 0.00 0.00 0.00 0.00 0.00 0.00 0.00 0.00 0.00 0.00 0.00 0.02 0.00 0.00 0.01 0.03 0.04 0.07 0.10 0.14 0.12 0.08 0.12 0.10
0.05 0.05 0.06 0.06 0.06 0.07 0.07 0.05 0.04 0.04 0.04 0.02 0.02 0.02 0.02 0.02 0.02 0.02 0.01 0.02 0.02 0.01 0.01 0.01 0.02 0.01 0.00 0.00 0.00 0.00 0.00 0.00 0.00 0.00 0.00 0.00 0.00 0.00 0.00 0.00 0.00 0.00 0.00 0.00 0.00 0.00 0.00 0.00 0.00 0.00 0.00 0.00 0.00 0.00 0.00 0.00 0.00 0.00 0.00 0.00 0.00 0.00 0.00 0.00 0.00 0.00 0.00 0.00 0.00 0.00 0.00 0.00 0.00 0.00 0.00 0.03 0.01 0.00 0.01 0.03 0.06 0.14 0.21 0.15 0.16 0.13 0.15 0.15
0.07 0.05 0.05 0.06 0.05 0.06 0.06 0.07 0.05 0.05 0.05 0.04 0.03 0.03 0.03 0.02 0.02 0.02 0.02 0.02 0.01 0.01 0.01 0.01 0.01 0.01 0.01 0.00 0.00 0.00 0.00 0.00 0.00 0.00 0.00 0.00 0.00 0.00 0.00 0.00 0.00 0.00 0.00 0.00 0.00 0.00 0.00 0.00 0.00 0.00 0.00 0.00 0.00 0.00 0.00 0.00 0.00 0.00 0.00 0.00 0.00 0.00 0.00 0.00 0.00 0.00 0.00 0.00 0.00 0.00 0.00 0.00 0.00 0.00 0.00 0.00 0.03 0.03 0.01 0.02 0.10 0.13 0.23 0.16 0.18 0.13 0.14 0.34
0.06 0.06 0.06 0.05 0.05 0.05 0.06 0.06 0.06 0.06 0.06 0.05 0.03 0.03 0.04 0.02 0.02 0.02 0.03 0.01 0.01 0.01 0.01 0.01 0.01 0.01 0.00 0.00 0.00 0.00 0.00 0.00 0.00 0.00 0.00 0.00 0.00 0.00 0.00 0.00 0.00 0.00 0.00 0.00 0.00 0.00 0.00 0.00 0.00 0.00 0.00 0.00 0.00 0.00 0.00 0.00 0.00 0.00 0.00 0.00 0.00 0.00 0.00 0.00 0.00 0.00 0.00 0.00 0.00 0.00 0.00 0.00 0.00 0.00 0.00 0.00 0.02 0.13 0.07 0.07 0.01 0.02 0.34 0.37 0.11 0.12 0.28 0.34
0.04 0.05 0.04 0.04 0.05 0.06 0.06 0.06 0.05 0.05 0.04 0.03 0.04 0.03 0.03 0.03 0.02 0.03 0.02 0.02 0.02 0.02 0.01 0.01 0.01 0.00 0.00 0.00 0.00 0.00 0.00 0.00 0.00 0.00 0.00 0.00 0.00 0.00 0.00 0.00 0.00 0.00 0.00 0.00 0.00 0.00 0.00 0.00 0.00 0.00 0.00 0.00 0.00 0.00 0.00 0.00 0.00 0.00 0.00 0.00 0.00 0.00 0.00 0.00 0.00 0.00 0.00 0.00 0.00 0.00 0.00 0.00 0.00 0.00 0.00 0.00 0.01 0.04 0.02 0.06 0.05 0.02 0.09 0.29 0.16 0.34 0.41 0.72
0.04 0.05 0.04 0.05 0.07 0.06 0.06 0.09 0.05 0.05 0.07 0.04 0.02 0.04 0.02 0.05 0.04 0.02 0.02 0.02 0.02 0.02 0.01 0.01 0.01 0.00 0.00 0.00 0.00 0.00 0.00 0.00 0.00 0.00 0.00 0.00 0.00 0.00 0.00 0.00 0.00 0.00 0.00 0.00 0.00 0.00 0.00 0.00 0.00 0.00 0.00 0.00 0.00 0.00 0.00 0.00 0.00 0.00 0.00 0.00 0.00 0.00 0.00 0.00 0.00 0.00 0.00 0.00 0.00 0.00 0.00 0.00 0.00 0.00 0.00 0.00 0.00 0.00 0.03 0.05 0.02 0.08 0.09 0.15 0.13 0.29 0.31 0.43
0.05 0.05 0.09 0.06 0.05 0.04 0.04 0.05 0.05 0.04 0.04 0.04 0.04 0.03 0.03 0.03 0.04 0.03 0.03 0.03 0.03 0.01 0.02 0.01 0.00 0.00 0.00 0.00 0.00 0.00 0.00 0.00 0.00 0.00 0.00 0.00 0.00 0.00 0.00 0.00 0.00 0.00 0.00 0.00 0.00 0.00 0.00 0.00 0.00 0.00 0.00 0.00 0.00 0.00 0.00 0.00 0.00 0.00 0.00 0.00 0.00 0.00 0.00 0.00 0.00 0.00 0.00 0.00 0.00 0.00 0.00 0.00 0.00 0.00 0.00 0.01 0.00 0.00 0.02 0.02 0.01 0.03 0.06 0.14 0.09 0.26 0.40 0.62
0.04 0.05 0.06 0.07 0.05 0.03 0.04 0.04 0.04 0.03 0.04 0.03 0.02 0.03 0.05 0.03 0.04 0.02 0.02 0.03 0.02 0.02 0.02 0.01 0.00 0.00 0.00 0.00 0.00 0.00 0.00 0.00 0.00 0.00 0.00 0.00 0.00 0.00 0.00 0.00 0.00 0.00 0.00 0.00 0.00 0.00 0.00 0.00 0.00 0.00 0.00 0.00 0.00 0.00 0.00 0.00 0.00 0.00 0.00 0.00 0.00 0.00 0.00 0.00 0.00 0.00 0.00 0.00 0.00 0.00 0.00 0.00 0.00 0.00 0.00 0.06 0.03 0.02 0.01 0.01 0.05 0.07 0.07 0.22 0.16 0.20 0.32 0.48
0.05 0.06 0.05 0.07 0.05 0.03 0.02 0.03 0.03 0.04 0.04 0.03 0.03 0.03 0.03 0.04 0.03 0.04 0.01 0.02 0.02 0.03 0.01 0.01 0.00 0.00 0.00 0.00 0.00 0.00 0.00 0.00 0.00 0.00 0.00 0.00 0.00 0.00 0.00 0.00 0.00 0.00 0.00 0.00 0.00 0.00 0.00 0.00 0.00 0.00 0.00 0.00 0.00 0.00 0.00 0.00 0.00 0.00 0.00 0.00 0.00 0.00 0.00 0.00 0.00 0.00 0.00 0.00 0.00 0.00 0.00 0.00 0.00 0.00 0.03 0.46 0.47 0.06 0.02 0.03 0.09 0.04 0.09 0.11 0.19 0.30 0.60 0.45
0.07 0.04 0.05 0.08 0.06 0.04 0.05 0.03 0.03 0.07 0.05 0.05 0.05 0.05 0.04 0.03 0.05 0.02 0.03 0.01 0.02 0.01 0.01 0.00 0.01 0.00 0.00 0.00 0.00 0.00 0.00 0.00 0.00 0.00 0.00 0.00 0.00 0.00 0.00 0.00 0.00 0.00 0.00 0.00 0.00 0.00 0.00 0.00 0.00 0.00 0.00 0.00 0.00 0.00 0.00 0.00 0.00 0.00 0.00 0.00 0.00 0.00 0.00 0.00 0.00 0.00 0.00 0.00 0.00 0.00 0.00 0.00 0.00 0.00 0.01 0.05 0.48 0.60 0.09 0.04 0.07 0.06 0.09 0.29 0.66 0.78 0.51 0.59
0.05 0.08 0.08 0.04 0.08 0.14 0.05 0.06 0.08 0.07 0.09 0.07 0.05 0.05 0.06 0.05 0.04 0.02 0.01 0.02 0.02 0.01 0.00 0.00 0.01 0.04 0.01 0.01 0.01 0.00 0.00 0.00 0.00 0.00 0.00 0.00 0.00 0.00 0.00 0.00 0.00 0.00 0.00 0.00 0.00 0.00 0.00 0.00 0.00 0.00 0.00 0.00 0.00 0.00 0.00 0.00 0.00 0.00 0.00 0.00 0.00 0.00 0.00 0.00 0.00 0.00 0.00 0.00 0.00 0.00 0.00 0.00 0.00 0.00 0.01 0.02 0.13 0.72 0.49 0.14 0.09 0.09 0.14 0.36 0.61 0.53 0.42 0.46
0.06 0.05 0.04 0.08 0.09 0.12 0.05 0.08 0.05 0.07 0.05 0.06 0.05 0.06 0.05 0.04 0.03 0.03 0.01 0.01 0.00 0.01 0.01 0.01 0.00 0.01 0.01 0.00 0.00 0.00 0.00 0.00 0.00 0.00 0.00 0.00 0.00 0.00 0.00 0.00 0.00 0.00 0.00 0.00 0.00 0.00 0.00 0.00 0.00 0.00 0.00 0.00 0.00 0.00 0.00 0.00 0.00 0.00 0.00 0.00 0.00 0.00 0.00 0.00 0.00 0.00 0.00 0.00 0.00 0.00 0.00 0.00 0.00 0.00 0.01 0.02 0.04 0.45 0.67 0.38 0.20 0.39 1.06 2.18 1.85 1.14 0.78 0.56
0.07 0.05 0.05 0.05 0.04 0.05 0.08 0.08 0.06 0.07 0.06 0.05 0.06 0.13 0.06 0.05 0.05 0.02 0.02 0.02 0.04 0.02 0.02 0.02 0.04 0.01 0.02 0.00 0.00 0.00 0.00 0.00 0.00 0.00 0.00 0.00 0.00 0.00 0.00 0.00 0.00 0.00 0.00 0.00 0.00 0.00 0.00 0.00 0.00 0.00 0.00 0.00 0.00 0.00 0.00 0.00 0.00 0.00 0.00 0.00 0.00 0.00 0.00 0.00 0.00 0.00 0.00 0.00 0.00 0.00 0.00 0.00 0.00 0.03 0.01 0.01 0.02 0.04 0.45 1.24 1.58 1.40 2.19 1.16 1.12 1.29 1.26 1.27
0.07 0.08 0.05 0.05 0.11 0.07 0.08 0.09 0.09 0.08 0.07 0.06 0.05 0.04 0.06 0.06 0.06 0.04 0.04 0.02 0.03 0.01 0.02 0.08 0.04 0.01 0.01 0.00 0.00 0.00 0.00 0.00 0.00 0.00 0.00 0.00 0.00 0.00 0.00 0.00 0.00 0.00 0.00 0.00 0.00 0.00 0.00 0.00 0.00 0.00 0.00 0.00 0.00 0.00 0.00 0.00 0.00 0.00 0.00 0.00 0.00 0.00 0.00 0.00 0.00 0.00 0.00 0.00 0.00 0.00 0.00 0.00 0.00 0.05 0.22 0.05 0.03 0.02 0.04 0.25 0.62 1.26 1.17 1.18 0.92 0.79 0.66 0.81
0.06 0.08 0.07 0.08 0.11 0.07 0.03 0.08 0.07 0.06 0.06 0.05 0.06 0.04 0.06 0.12 0.13 0.09 0.07 0.02 0.01 0.02 0.01 0.03 0.01 0.01 0.00 0.00 0.00 0.00 0.00 0.00 0.00 0.00 0.00 0.00 0.00 0.00 0.00 0.00 0.00 0.00 0.00 0.00 0.00 0.00 0.00 0.00 0.00 0.00 0.00 0.00 0.00 0.00 0.00 0.00 0.00 0.00 0.00 0.00 0.00 0.00 0.00 0.00 0.00 0.00 0.00 0.00 0.00 0.00 0.00 0.00 0.06 0.05 0.04 0.11 0.07 0.04 0.02 0.06 0.11 0.44 0.70 1.11 0.70 0.57 0.59 0.34
0.07 0.06 0.09 0.08 0.09 0.11 0.07 0.07 0.06 0.13 0.07 0.04 0.03 0.03 0.05 0.05 0.06 0.09 0.04 0.05 0.02 0.00 0.04 0.00 0.00 0.01 0.00 0.00 0.00 0.00 0.00 0.00 0.00 0.00 0.00 0.00 0.00 0.00 0.00 0.00 0.00 0.00 0.00 0.00 0.00 0.00 0.00 0.00 0.00 0.00 0.00 0.00 0.00 0.00 0.00 0.00 0.00 0.00 0.00 0.00 0.00 0.00 0.00 0.00 0.00 0.00 0.00 0.00 0.00 0.00 0.00 0.01 0.01 0.03 0.06 0.17 0.14 0.14 0.49 0.85 1.09 1.49 1.05 0.59 0.79 0.38 0.29 0.25
0.05 0.06 0.08 0.08 0.06 0.08 0.04 0.04 0.04 0.06 0.09 0.07 0.04 0.03 0.03 0.04 0.05 0.07 0.06 0.03 0.01 0.00 0.01 0.00 0.00 0.01 0.00 0.00 0.00 0.00 0.00 0.00 0.00 0.00 0.00 0.00 0.00 0.00 0.00 0.00 0.00 0.00 0.00 0.00 0.00 0.00 0.00 0.00 0.00 0.00 0.00 0.00 0.00 0.00 0.00 0.00 0.00 0.00 0.00 0.00 0.00 0.00 0.00 0.00 0.00 0.00 0.00 0.00 0.00 0.00 0.00 0.00 0.03 0.05 0.13 0.27 0.49 0.38 0.55 1.26 0.31 0.14 0.17 0.50 0.48 0.41 0.29 0.36
0.06 0.07 0.09 0.07 0.07 0.05 0.06 0.04 0.03 0.04 0.11 0.12 0.05 0.04 0.02 0.05 0.10 0.05 0.04 0.05 0.01 0.01 0.00 0.01 0.01 0.00 0.02 0.00 0.00 0.00 0.00 0.00 0.00 0.00 0.00 0.00 0.00 0.00 0.00 0.00 0.00 0.00 0.00 0.00 0.00 0.00 0.00 0.00 0.00 0.00 0.00 0.00 0.00 0.00 0.00 0.00 0.00 0.00 0.01 0.00 0.00 0.00 0.00 0.00 0.00 0.00 0.00 0.00 0.00 0.00 0.00 0.01 0.02 0.06 0.42 1.34 0.83 0.93 1.33 1.00 0.06 0.06 0.10 0.10 0.15 0.34 0.57 0.47
0.09 0.10 0.09 0.07 0.09 0.05 0.04 0.02 0.03 0.06 0.49 0.04 0.05 0.03 0.06 0.07 0.10 0.05 0.04 0.04 0.01 0.00 0.00 0.00 0.00 0.00 0.00 0.00 0.00 0.00 0.00 0.00 0.00 0.00 0.00 0.00 0.00 0.00 0.00 0.00 0.00 0.00 0.00 0.00 0.00 0.00 0.00 0.00 0.00 0.00 0.00 0.00 0.00 0.00 0.00 0.00 0.00 0.00 0.00 0.00 0.00 0.00 0.00 0.00 0.00 0.00 0.00 0.00 0.00 0.00 0.00 0.01 0.02 0.06 0.56 1.43 2.41 1.09 0.91 0.12 0.06 0.07 0.09 0.15 0.23 0.32 0.49 0.48
0.08 0.10 0.08 0.10 0.08 0.08 0.03 0.03 0.02 0.06 0.16 0.19 0.05 0.19 0.07 0.04 0.04 0.06 0.02 0.01 0.00 0.00 0.00 0.00 0.00 0.00 0.00 0.00 0.00 0.00 0.00 0.00 0.00 0.00 0.00 0.00 0.00 0.00 0.00 0.00 0.00 0.00 0.00 0.00 0.00 0.00 0.00 0.00 0.00 0.00 0.00 0.00 0.00 0.00 0.00 0.00 0.00 0.00 0.00 0.00 0.00 0.00 0.00 0.00 0.00 0.00 0.00 0.00 0.01 0.01 0.01 0.02 0.02 0.05 0.42 0.36 2.38 1.41 1.23 0.73 0.22 0.38 0.88 0.29 0.16 0.24 0.23 0.44
0.08 0.08 0.12 0.09 0.10 0.07 0.05 0.03 0.03 0.06 0.21 0.14 0.15 0.04 0.05 0.11 0.04 0.10 0.02 0.02 0.00 0.00 0.00 0.00 0.00 0.00 0.00 0.00 0.00 0.00 0.00 0.00 0.00 0.00 0.00 0.00 0.00 0.00 0.00 0.00 0.00 0.00 0.00 0.00 0.00 0.00 0.00 0.00 0.00 0.00 0.00 0.00 0.00 0.00 0.00 0.00 0.00 0.00 0.00 0.00 0.00 0.00 0.00 0.00 0.00 0.00 0.00 0.00 0.01 0.01 0.02 0.04 0.07 0.07 0.78 0.32 0.30 1.65 1.32 0.37 0.69 1.29 0.86 1.63 1.21 0.74 0.80 0.50
0.21 0.06 0.07 0.11 0.11 0.11 0.16 0.14 0.09 0.18 0.20 0.10 0.08 0.04 0.05 0.04 0.07 0.13 0.01 0.00 0.00 0.00 0.00 0.00 0.00 0.00 0.00 0.00 0.00 0.00 0.00 0.00 0.00 0.00 0.00 0.00 0.00 0.00 0.00 0.00 0.00 0.00 0.00 0.00 0.00 0.00 0.00 0.00 0.00 0.00 0.00 0.00 0.00 0.00 0.00 0.00 0.00 0.00 0.00 0.00 0.00 0.00 0.00 0.02 0.00 0.00 0.00 0.00 0.00 0.00 0.02 0.07 0.08 0.17 0.19 0.23 0.29 0.30 1.10 0.65 0.68 1.04 1.01 0.58 1.08 0.95 0.60 0.49
0.15 0.23 0.26 0.30 0.20 0.17 0.19 0.29 0.18 0.17 0.08 0.02 0.04 0.11 0.14 0.20 0.07 0.03 0.05 0.00 0.00 0.00 0.00 0.00 0.00 0.00 0.00 0.00 0.00 0.00 0.00 0.00 0.00 0.00 0.00 0.00 0.00 0.00 0.00 0.00 0.00 0.00 0.00 0.00 0.00 0.00 0.00 0.00 0.00 0.00 0.00 0.00 0.00 0.00 0.00 0.00 0.00 0.00 0.00 0.00 0.00 0.00 0.00 0.00 0.03 0.00 0.00 0.00 0.00 0.00 0.02 0.05 0.09 0.17 0.19 0.26 0.32 0.20 0.78 0.63 0.52 0.36 0.75 0.73 1.03 0.77 0.62 0.55
0.10 0.27 0.23 0.11 0.26 0.16 0.33 0.35 0.05 0.01 0.01 0.10 0.05 0.15 0.36 0.08 0.07 0.04 0.00 0.00 0.00 0.00 0.00 0.00 0.00 0.00 0.00 0.00 0.00 0.00 0.00 0.00 0.00 0.00 0.00 0.00 0.00 0.00 0.00 0.00 0.00 0.00 0.00 0.00 0.00 0.00 0.00 0.00 0.00 0.00 0.00 0.00 0.00 0.00 0.00 0.00 0.00 0.00 0.00 0.00 0.00 0.00 0.00 0.00 0.00 0.00 0.00 0.01 0.00 0.02 0.02 0.09 0.15 0.38 0.10 0.23 0.24 0.27 0.41 0.42 0.77 0.96 0.55 0.62 0.64 0.62 0.46 0.40
0.15 0.15 0.20 0.17 0.32 0.57 0.67 0.13 0.03 0.03 0.02 0.12 0.07 0.06 0.09 0.22 0.08 0.02 0.00 0.01 0.02 0.02 0.00 0.00 0.00 0.00 0.00 0.00 0.00 0.00 0.00 0.00 0.00 0.00 0.00 0.00 0.00 0.00 0.00 0.00 0.00 0.00 0.00 0.00 0.00 0.00 0.01 0.00 0.00 0.00 0.00 0.00 0.00 0.00 0.00 0.00 0.00 0.00 0.01 0.00 0.00 0.00 0.00 0.00 0.00 0.00 0.01 0.01 0.05 0.00 0.01 0.12 0.09 0.26 0.25 0.27 0.12 0.18 0.41 0.36 0.37 1.12 0.55 0.24 0.24 0.38 0.75 0.36
0.10 0.16 0.17 0.29 0.38 0.71 0.10 0.07 0.10 0.15 0.05 0.06 0.05 0.26 0.07 0.03 0.51 0.07 0.03 0.05 0.07 0.02 0.00 0.00 0.00 0.00 0.00 0.00 0.00 0.00 0.00 0.01 0.00 0.00 0.00 0.00 0.00 0.00 0.00 0.00 0.00 0.00 0.00 0.00 0.00 0.00 0.00 0.00 0.00 0.00 0.00 0.00 0.00 0.00 0.00 0.00 0.00 0.01 0.01 0.00 0.00 0.00 0.00 0.00 0.00 0.00 0.02 0.00 0.01 0.00 0.00 0.10 0.10 0.10 0.12 0.34 0.30 0.27 0.39 0.29 0.22 0.11 0.83 0.41 0.46 0.79 0.31 0.22
0.19 0.49 0.22 0.29 0.48 0.14 0.07 0.12 0.12 0.08 0.09 0.10 0.03 0.13 0.16 0.03 0.12 0.20 0.06 0.06 0.07 0.00 0.02 0.00 0.00 0.00 0.00 0.00 0.00 0.00 0.00 0.00 0.00 0.00 0.00 0.00 0.00 0.00 0.00 0.00 0.00 0.00 0.00 0.00 0.01 0.00 0.00 0.00 0.00 0.00 0.00 0.00 0.00 0.00 0.00 0.00 0.00 0.00 0.00 0.00 0.00 0.00 0.00 0.00 0.01 0.01 0.02 0.01 0.04 0.00 0.00 0.02 0.06 0.15 0.23 0.18 0.45 0.34 0.53 0.31 0.16 0.16 0.22 0.44 0.86 0.54 0.29 0.20
0.35 0.24 0.33 0.38 0.23 0.59 0.10 0.42 0.29 0.14 0.11 0.14 0.10 0.12 0.07 0.54 0.17 0.16 0.25 0.10 0.19 0.01 0.00 0.02 0.00 0.00 0.00 0.00 0.00 0.00 0.00 0.00 0.00 0.00 0.00 0.00 0.00 0.00 0.00 0.00 0.00 0.00 0.00 0.00 0.01 0.01 0.00 0.00 0.00 0.00 0.00 0.00 0.00 0.00 0.00 0.00 0.00 0.00 0.00 0.00 0.00 0.00 0.00 0.00 0.02 0.00 0.09 0.01 0.02 0.04 0.08 0.02 0.18 0.07 0.29 0.24 0.15 0.21 0.20 0.15 0.22 0.22 0.22 0.28 0.28 0.50 0.34 0.18
0.27 0.39 0.23 0.33 0.17 0.17 0.12 0.13 0.30 0.30 0.35 0.37 0.20 0.06 0.17 0.41 0.38 0.15 0.16 0.01 0.01 0.07 0.00 0.00 0.03 0.01 0.00 0.00 0.00 0.00 0.00 0.00 0.00 0.00 0.00 0.00 0.00 0.00 0.00 0.00 0.00 0.00 0.00 0.00 0.00 0.00 0.01 0.00 0.00 0.00 0.00 0.00 0.00 0.00 0.00 0.00 0.00 0.00 0.00 0.00 0.00 0.00 0.00 0.01 0.01 0.01 0.05 0.01 0.01 0.01 0.05 0.00 0.13 0.16 0.10 0.13 0.16 0.12 0.11 0.14 0.18 0.17 0.16 0.25 0.50 0.22 0.19 0.24
0.14 0.22 0.43 0.31 0.31 0.27 0.19 0.21 0.47 0.49 0.50 0.12 0.10 0.15 0.46 0.29 0.34 0.07 0.03 0.04 0.00 0.04 0.00 0.00 0.00 0.00 0.00 0.00 0.00 0.00 0.00 0.00 0.00 0.00 0.00 0.00 0.00 0.00 0.00 0.00 0.00 0.00 0.00 0.00 0.00 0.00 0.00 0.00 0.00 0.00 0.00 0.00 0.00 0.00 0.00 0.00 0.00 0.00 0.00 0.01 0.00 0.03 0.02 0.02 0.02 0.02 0.07 0.00 0.02 0.03 0.01 0.04 0.11 0.40 0.41 0.15 0.17 0.09 0.10 0.10 0.16 0.19 0.14 0.17 0.20 0.19 0.16 0.37
0.14 0.11 0.39 0.20 0.38 0.27 0.19 0.41 0.55 0.20 0.43 0.06 0.05 0.11 0.35 0.31 0.13 0.17 0.02 0.00 0.15 0.11 0.01 0.02 0.00 0.00 0.00 0.00 0.00 0.00 0.00 0.00 0.00 0.00 0.00 0.00 0.00 0.00 0.00 0.00 0.00 0.00 0.01 0.00 0.04 0.00 0.00 0.00 0.00 0.00 0.00 0.00 0.00 0.00 0.00 0.00 0.00 0.00 0.00 0.01 0.17 0.18 0.01 0.08 0.03 0.02 0.00 0.01 0.04 0.00 0.00 0.03 0.03 0.11 0.36 0.10 0.08 0.06 0.06 0.08 0.14 0.12 0.11 0.10 0.20 0.13 0.19 0.14
0.05 0.04 0.09 0.35 0.22 0.33 0.18 0.19 0.40 0.60 0.38 0.10 0.36 0.81 0.48 0.35 0.03 0.03 0.08 0.03 0.45 0.04 0.06 0.01 0.01 0.00 0.02 0.00 0.00 0.00 0.00 0.02 0.02 0.00 0.00 0.00 0.00 0.00 0.00 0.00 0.00 0.00 0.04 0.03 0.03 0.00 0.02 0.00 0.00 0.00 0.00 0.00 0.00 0.00 0.01 0.01 0.00 0.00 0.01 0.09 0.05 0.12 0.05 0.02 0.07 0.02 0.06 0.02 0.01 0.02 0.04 0.09 0.44 0.38 0.27 0.18 0.14 0.11 0.07 0.10 0.08 0.09 0.12 0.14 0.16 0.14 0.20 0.16
0.01 0.01 0.12 0.05 0.26 0.18 0.15 0.19 0.19 0.21 0.26 0.20 0.21 0.32 0.77 0.12 0.02 0.04 0.08 0.18 0.59 0.04 0.01 0.05 0.01 0.00 0.00 0.03 0.12 0.00 0.01 0.00 0.00 0.00 0.00 0.02 0.00 0.01 0.00 0.00 0.00 0.00 0.00 0.07 0.02 0.01 0.02 0.14 0.00 0.00 0.01 0.00 0.00 0.00 0.00 0.04 0.00 0.00 0.00 0.01 0.07 0.09 0.05 0.02 0.05 0.08 0.02 0.12 0.05 0.02 0.01 0.11 0.15 1.79 0.15 0.11 0.11 0.02 0.04 0.09 0.04 0.05 0.08 0.12 0.19 0.10 0.16 0.44
0.01 0.02 0.04 0.04 0.10 0.06 0.05 0.08 0.20 0.15 0.26 0.36 0.20 0.34 0.28 0.04 0.11 0.13 0.27 0.23 0.29 0.26 0.04 0.01 0.04 0.00 0.01 0.00 0.01 0.01 0.00 0.13 0.00 0.01 0.00 0.00 0.03 0.00 0.01 0.00 0.00 0.00 0.00 0.00 0.05 0.00 0.01 0.08 0.01 0.00 0.00 0.00 0.00 0.00 0.00 0.00 0.02 0.00 0.01 0.01 0.04 0.04 0.01 0.07 0.22 0.03 0.13 0.07 0.03 0.08 0.08 0.33 0.74 1.38 0.45 0.14 0.05 0.05 0.06 0.05 0.06 0.07 0.06 0.10 0.20 0.28 0.25 0.41
0.01 0.02 0.03 0.04 0.05 0.02 0.02 0.40 0.15 0.18 0.24 0.19 0.35 0.30 0.17 0.10 0.32 0.48 0.58 0.22 0.19 0.18 0.05 0.02 0.01 0.03 0.01 0.02 0.00 0.02 0.04 0.04 0.13 0.02 0.06 0.00 0.00 0.03 0.00 0.00 0.00 0.00 0.03 0.00 0.09 0.05 0.00 0.10 0.01 0.01 0.00 0.00 0.00 0.00 0.00 0.00 0.23 0.07 0.00 0.05 0.01 0.01 0.01 0.01 0.00 0.01 0.00 0.00 0.07 0.02 0.14 0.52 0.41 1.32 0.39 0.48 0.17 0.11 0.07 0.08 0.08 0.09 0.08 0.19 0.29 0.24 0.36 0.50
0.05 0.05 0.05 0.02 0.01 0.01 0.04 0.22 0.12 0.14 0.10 0.16 0.26 0.19 0.11 0.17 0.37 0.42 0.50 0.30 0.27 0.21 0.06 0.09 0.03 0.01 0.02 0.02 0.06 0.00 0.09 0.01 0.12 0.02 0.21 0.01 0.06 0.00 0.00 0.00 0.00 0.00 0.00 0.00 0.06 0.00 0.11 0.22 0.01 0.01 0.00 0.00 0.00 0.00 0.00 0.00 0.00 0.00 0.03 0.04 0.00 0.00 0.03 0.02 0.09 0.08 0.01 0.01 0.10 0.02 0.08 0.48 0.22 0.72 0.89 0.49 0.23 0.24 0.18 0.13 0.08 0.16 0.23 0.31 0.50 0.78 0.91 1.02
0.10 0.14 0.11 0.04 0.01 0.02 0.06 0.16 0.12 0.07 0.13 0.19 0.16 0.25 0.25 0.39 0.41 0.40 0.26 0.23 0.14 0.20 0.32 0.10 0.17 0.00 0.02 0.05 0.06 0.02 0.05 0.02 0.26 0.03 0.18 0.05 0.28 0.00 0.02 0.01 0.00 0.00 0.00 0.00 0.02 0.03 0.00 0.13 0.05 0.00 0.00 0.01 0.00 0.00 0.00 0.00 0.00 0.00 0.06 0.02 0.01 0.08 0.05 0.02 0.00 0.03 0.03 0.04 0.09 0.10 0.25 0.14 0.16 0.78 0.64 0.56 0.23 0.43 0.42 0.29 0.29 0.24 0.40 0.79 0.58 0.79 1.13 1.59
0.26 0.34 0.35 0.04 0.02 0.03 0.03 0.11 0.12 0.04 0.13 0.10 0.17 0.17 0.22 0.37 0.30 0.27 0.26 0.14 0.06 0.36 0.24 0.11 0.10 0.00 0.01 0.02 0.05 0.04 0.05 0.15 0.08 0.18 0.10 0.27 0.21 0.09 0.11 0.01 0.03 0.00 0.00 0.00 0.01 0.03 0.00 0.05 0.07 0.00 0.00 0.02 0.00 0.00 0.01 0.01 0.00 0.00 0.00 0.00 0.00 0.00 0.13 0.08 0.01 0.11 0.01 0.17 0.03 0.19 0.15 0.26 0.54 0.58 0.19 0.22 0.20 0.26 0.22 0.27 0.40 0.71 0.65 0.93 1.06 1.10 1.18 1.14
0.45 0.44 0.53 0.07 0.01 0.00 0.06 0.06 0.23 0.09 0.18 0.12 0.14 0.19 0.22 0.25 0.22 0.35 0.11 0.06 0.19 0.15 0.45 0.26 0.02 0.07 0.00 0.03 0.00 0.12 0.06 0.09 0.07 0.24 0.07 0.45 0.10 0.08 0.09 0.01 0.07 0.00 0.00 0.00 0.01 0.00 0.05 0.00 0.14 0.08 0.00 0.00 0.04 0.00 0.02 0.00 0.04 0.00 0.00 0.00 0.00 0.01 0.04 0.00 0.08 0.03 0.07 0.08 0.16 0.16 0.18 0.60 0.60 0.11 0.22 0.23 0.17 0.32 0.28 0.26 0.27 0.53 0.86 0.54 0.85 1.17 1.24 1.13
0.46 0.94 0.77 0.01 0.03 0.01 0.12 0.13 0.12 0.12 0.09 0.11 0.16 0.16 0.11 0.19 0.22 0.21 0.06 0.03 0.06 0.04 0.20 0.13 0.13 0.08 0.02 0.03 0.01 0.00 0.04 0.02 0.08 0.15 0.05 0.30 0.17 0.35 0.00 0.02 0.01 0.20 0.00 0.01 0.01 0.01 0.01 0.00 0.04 0.12 0.04 0.02 0.01 0.00 0.00 0.00 0.02 0.01 0.00 0.03 0.01 0.05 0.11 0.09 0.05 0.00 0.08 0.06 0.12 0.12 0.21 0.39 0.63 0.18 0.26 0.49 0.63 0.37 0.54 0.37 0.41 0.76 0.27 0.52 0.61 0.87 0.55 0.70
0.51 0.87 0.70 0.05 0.04 0.01 0.11 0.21 0.09 0.10 0.12 0.15 0.17 0.08 0.16 0.15 0.26 0.14 0.06 0.05 0.10 0.07 0.04 0.06 0.02 0.02 0.03 0.02 0.02 0.00 0.00 0.02 0.14 0.06 0.18 0.35 0.29 0.09 0.07 0.00 0.01 0.00 0.07 0.06 0.15 0.11 0.02 0.05 0.10 0.06 0.17 0.37 0.09 0.04 0.01 0.01 0.01 0.01 0.00 0.02 0.01 0.02 0.01 0.12 0.08 0.19 0.05 0.10 0.04 0.18 0.15 0.50 0.52 0.40 0.42 0.20 0.42 0.36 0.53 0.56 0.68 0.75 0.74 0.97 1.22 1.37 0.85 0.59
0.78 1.65 0.44 0.11 0.03 0.02 0.12 0.28 0.09 0.12 0.21 0.12 0.07 0.08 0.14 0.25 0.25 0.11 0.05 0.13 0.14 0.03 0.05 0.08 0.05 0.11 0.00 0.00 0.02 0.03 0.01 0.07 0.05 0.20 0.10 0.14 0.30 0.10 0.05 0.01 0.00 0.02 0.01 0.07 0.04 0.06 0.00 0.00 0.03 0.06 0.06 0.08 0.01 0.00 0.01 0.00 0.00 0.00 0.00 0.00 0.01 0.07 0.05 0.05 0.12 0.22 0.14 0.16 0.11 0.13 0.06 0.71 0.37 0.94 0.60 0.49 0.88 0.62 0.40 0.56 0.76 0.53 0.67 0.78 0.94 0.62 0.94 0.38
1.31 1.63 0.49 0.26 0.02 0.08 0.25 0.30 0.25 0.13 0.17 0.11 0.18 0.27 0.27 0.31 0.14 0.12 0.14 0.16 0.05 0.03 0.11 0.05 0.02 0.01 0.08 0.00 0.00 0.02 0.02 0.03 0.01 0.03 0.16 0.07 0.24 0.03 0.07 0.06 0.05 0.20 0.05 0.40 0.12 0.10 0.15 0.03 0.07 0.17 0.17 0.25 0.22 0.09 0.04 0.02 0.01 0.01 0.06 0.03 0.01 0.07 0.04 0.09 0.04 0.07 0.03 0.06 0.19 0.10 0.24 0.73 0.91 0.36 0.68 0.42 0.19 0.30 1.59 1.25 1.30 0.66 0.31 0.87 0.87 1.11 1.12 0.68
1.57 0.68 0.68 0.44 0.07 0.36 0.54 0.40 0.52 0.27 0.33 0.34 0.45 0.35 0.40 0.20 0.14 0.14 0.10 0.11 0.02 0.01 0.07 0.09 0.02 0.12 0.00 0.00 0.00 0.00 0.01 0.02 0.12 0.03 0.05 0.07 0.36 0.01 0.04 0.01 0.08 0.28 0.08 0.08 0.00 0.06 0.12 0.35 0.07 0.14 0.37 0.44 0.39 0.47 0.53 0.23 0.12 0.04 0.01 0.03 0.03 0.02 0.13 0.14 0.05 0.05 0.04 0.01 0.04 0.12 0.18 0.31 0.42 0.30 0.39 0.37 0.39 0.43 0.46 0.49 0.50 0.74 0.97 0.31 0.48 0.54 0.38 0.74
1.48 0.53 0.34 0.99 0.68 0.72 0.22 0.42 0.40 0.56 0.41 0.43 0.33 0.26 0.21 0.38 0.27 0.35 0.09 0.09 0.08 0.01 0.05 0.06 0.04 0.04 0.02 0.01 0.01 0.01 0.02 0.01 0.04 0.11 0.05 0.18 0.14 0.02 0.07 0.05 0.01 0.11 0.03 0.00 0.04 0.03 0.31 0.14 0.34 0.20 0.28 0.60 0.51 0.31 0.15 0.01 0.11 0.12 0.17 0.03 0.12 0.01 0.04 0.04 0.11 0.14 0.10 0.21 0.15 0.26 0.18 0.37 0.49 0.38 0.27 0.22 0.40 0.36 0.79 0.37 0.47 0.52 0.40 0.77 0.62 0.90 0.58 0.71
1.19 0.49 0.19 0.35 0.22 0.55 0.69 0.26 0.25 0.40 0.43 0.32 0.27 0.16 0.34 0.23 0.27 0.21 0.05 0.35 0.03 0.13 0.12 0.13 0.03 0.05 0.08 0.01 0.05 0.04 0.01 0.07 0.02 0.04 0.07 0.13 0.12 0.11 0.02 0.07 0.06 0.01 0.01 0.05 0.07 0.08 0.23 0.20 0.18 0.23 0.17 0.26 0.15 0.16 0.22 0.04 0.16 0.14 0.20 0.24 0.14 0.09 0.10 0.18 0.03 0.11 0.23 0.09 0.27 0.64 0.29 0.18 0.29 0.25 0.21 0.22 0.21 0.18 0.36 0.25 0.16 0.20 0.45 0.39 0.54 0.62 0.60 0.26
0.93 0.59 0.19 0.08 0.32 0.44 0.44 0.54 0.32 0.45 0.45 0.21 0.35 0.25 0.36 0.35 0.37 0.28 0.25 0.22 0.10 0.08 0.08 0.06 0.04 0.01 0.01 0.03 0.04 0.03 0.08 0.07 0.04 0.05 0.11 0.17 0.07 0.13 0.10 0.03 0.15 0.09 0.07 0.10 0.06 0.10 0.34 0.32 0.40 0.23 0.41 0.22 0.36 0.28 0.10 0.09 0.08 0.10 0.13 0.14 0.23 0.19 0.16 0.19 0.12 0.09 0.26 0.05 0.43 0.41 0.26 0.16 0.20 0.18 0.16 0.19 0.13 0.20 0.25 0.28 0.22 0.25 0.16 0.08 0.11 0.17 0.30 0.19
1.66 0.20 0.37 0.08 0.35 0.52 0.31 0.60 0.51 0.55 0.63 0.35 0.50 0.30 0.32 0.21 0.24 0.37 0.17 0.64 0.08 0.27 0.13 0.08 0.03 0.03 0.01 0.03 0.05 0.08 0.11 0.13 0.03 0.11 0.23 0.38 0.25 0.30 0.31 0.26 0.05 0.08 0.05 0.05 0.13 0.07 0.10 0.31 0.46 0.29 0.34 0.34 0.24 0.16 0.19 0.12 0.10 0.17 0.10 0.11 0.19 0.12 0.12 0.12 0.10 0.06 0.13 0.20 0.15 0.26 0.04 0.10 0.20 0.24 0.13 0.15 0.12 0.19 0.28 0.22 0.22 0.12 0.09 0.26 0.09 0.10 0.08 0.23
0.87 0.80 0.41 0.10 0.21 0.08 0.23 0.37 0.56 0.66 0.67 0.35 0.24 0.22 0.23 0.16 0.29 0.20 0.11 0.17 0.31 0.13 0.12 0.10 0.13 0.14 0.07 0.04 0.07 0.21 0.21 0.16 0.21 0.06 0.32 0.08 0.19 0.41 0.59 0.50 0.60 0.07 0.02 0.10 0.06 0.30 0.13 0.23 0.07 0.39 0.55 0.36 0.52 0.30 0.22 0.27 0.22 0.26 0.07 0.04 0.06 0.10 0.30 0.12 0.35 0.39 0.12 0.16 0.40 0.42 0.12 0.17 0.33 0.17 0.15 0.14 0.11 0.15 0.63 0.50 0.41 0.21 0.08 0.23 0.18 0.04 0.04 0.06
1.03 0.68 0.47 0.60 0.39 0.28 0.38 0.27 0.29 0.36 0.61 0.54 0.48 0.28 0.20 0.11 0.18 0.11 0.14 0.04 0.10 0.12 0.12 0.19 0.04 0.15 0.16 0.12 0.13 0.20 0.09 0.23 0.11 0.21 0.25 0.11 0.16 0.12 0.15 0.30 0.03 0.62 0.53 0.63 0.54 0.85 0.13 0.43 0.19 0.31 0.44 0.50 0.26 0.61 0.63 0.74 0.60 0.36 0.22 0.32 0.19 0.28 0.35 0.22 0.23 0.17 0.26 0.42 0.48 0.41 0.24 0.22 0.55 0.29 0.38 0.14 0.10 0.10 0.12 0.20 0.21 0.06 0.06 0.09 0.06 0.13 0.07 0.33
0.92 0.40 0.40 0.63 0.54 0.34 0.48 0.25 0.46 0.27 0.43 0.28 0.39 0.46 0.48 0.33 0.19 0.32 0.29 0.16 0.22 0.11 0.23 0.36 0.09 0.23 0.16 0.20 0.17 0.18 0.07 0.15 0.14 0.13 0.19 0.07 0.05 0.11 0.04 0.09 0.03 0.15 0.15 0.16 0.52 0.45 0.41 0.34 0.31 0.62 0.37 0.63 0.52 0.60 0.45 0.42 0.40 0.45 0.37 0.36 0.25 0.29 0.14 0.31 0.18 0.15 0.24 0.42 0.42 0.55 0.40 0.29 0.26 0.16 0.10 0.22 0.09 0.12 0.21 0.08 0.11 0.09 0.07 0.07 0.07 0.07 0.09 0.08